Location: Unspecified
(54.1780°N, 0.0000°E)
Time: 05:02:16
(UTC+00:00)

S-56A Canister/Altair - Pass Details

Date: 25 June 2019
Orbit: 632 x 2500 km, 38.9° (Epoch: 19 July)

Event Time Altitude Azimuth Distance (km) Brightness Sun altitude
Rises 15:59:50 0° 236° (SW) 5,219 12.6 36.6°
Reaches altitude 10° 16:04:23 10° 225° (SW) 3,883 12.0 35.9°
Maximum altitude 16:11:37 25° 177° (S) 2,355 10.3 34.9°
Drops below altitude 10° 16:17:02 10° 125° (SE) 2,821 10.1 34.1°
Sets 16:19:46 0° 111° (ESE) 3,545 10.5 33.7°
